Wind_Speed
10 10 10 11 12 13 13 14 15 15 15 16 17 17 17 18 18 19 20 20 21 21 21 21 22 20 18 18 19 19 20 20 20 21 21 22 23 23
9 10 10 10 11 12 13 13 14 15 15 16 16 17 17 17 17 18 20 21 20 19 20 20 20 19 19 18 19 20 20 20 21 21 22 22 22 23
9 10 10 10 11 12 13 13 14 14 14 15 16 16 17 17 17 17 18 19 18 17 17 18 18 18 18 18 19 19 20 20 21 21 21 21 22 23
11 11 10 10 11 11 12 13 13 13 13 14 15 16 16 16 16 17 17 17 17 17 18 18 19 19 19 19 18 19 19 20 21 22 22 23 23 24
12 12 12 11 11 11 12 12 13 13 13 14 15 15 15 15 16 15 16 18 17 18 18 19 18 18 18 19 19 19 19 20 21 22 23 23 24 25
13 13 12 12 12 12 12 13 14 14 14 14 14 14 15 16 16 16 17 17 17 18 18 18 18 18 19 19 20 20 20 21 21 22 23 23 23 24
14 13 13 14 14 13 13 13 13 13 14 14 14 14 15 15 16 17 17 17 17 18 18 18 19 19 19 19 20 20 21 22 21 22 23 23 24 24
14 14 14 15 15 15 14 14 13 13 14 14 15 15 16 16 17 17 18 18 17 19 19 19 20 20 20 20 21 21 21 22 22 22 22 22 23 25
16 16 15 15 16 16 15 15 15 14 14 14 14 15 15 16 16 17 17 18 18 19 19 20 20 20 21 21 21 22 21 21 22 23 23 24 23 24
17 17 17 17 17 16 16 16 16 16 16 16 16 16 17 16 16 17 18 18 19 19 19 20 20 20 20 20 21 21 22 23 24 24 25 25 25 24
18 18 18 18 18 17 17 16 16 17 18 18 18 17 17 17 17 17 18 18 18 18 19 20 21 21 21 21 21 21 22 22 23 24 25 25 25 25
19 19 19 19 19 19 18 18 18 18 18 19 19 19 18 18 18 18 19 19 19 19 19 20 21 21 22 22 22 23 23 23 23 24 24 25 26 26
20 20 20 20 20 19 20 19 20 19 19 19 20 20 20 19 19 19 20 20 20 20 21 21 21 22 23 23 24 24 24 24 24 25 25 25 26 26
20 21 21 20 20 20 21 20 20 20 20 20 20 20 20 19 19 20 21 21 22 22 22 22 22 22 23 23 23 24 25 26 26 26 26 26 27 27
21 21 21 21 21 21 20 20 21 21 21 21 21 21 21 21 21 21 22 22 22 23 22 22 22 23 24 24 24 24 25 26 26 26 27 27 27 27
21 21 21 21 21 21 21 21 21 21 21 21 22 22 22 23 23 23 23 24 23 23 23 23 23 23 23 24 24 25 26 26 27 27 27 27 27 28
21 21 21 21 21 21 21 21 21 21 22 22 22 23 23 24 24 24 24 24 24 24 24 24 24 24 25 25 25 26 26 27 27 27 28 28 28 28
21 21 21 22 22 21 21 22 23 23 22 22 22 23 23 24 24 24 24 24 24 25 25 25 26 27 27 27 27 27 28 28 28 28 29 29 28 29
21 21 21 21 21 21 22 22 23 23 23 23 23 22 23 24 24 24 25 25 25 25 26 27 27 27 28 28 27 27 27 28 28 29 29 29 30 30
21 21 21 21 21 22 22 23 23 23 23 23 23 23 23 23 24 24 25 25 26 26 27 27 27 27 28 28 28 28 28 28 28 29 29 29 30 30
21 21 21 22 22 22 23 23 24 24 24 24 24 25 25 25 24 25 25 26 26 27 28 28 28 28 28 28 28 28 29 29 30 29 29 29 29 30
21 22 22 22 22 23 23 23 23 24 24 24 24 25 25 26 26 26 26 27 27 27 28 28 28 28 28 28 29 29 29 30 31 31 30 30 29 29
22 23 23 23 23 24 24 23 23 23 23 24 25 26 27 27 27 28 28 27 27 27 27 27 28 28 28 28 29 29 30 31 31 32 31 31 30 30
Wind_Direction
272 269 267 267 264 263 264 266 268 265 263 262 263 265 268 267 267 269 270 273 274 274 274 275 276 276 272 269 270 273 276 276 275 274 274 272 267 265
276 273 272 274 271 267 266 267 267 266 264 265 265 265 269 271 270 271 273 273 274 274 275 278 277 275 273 273 273 274 275 278 278 276 276 273 270 269
278 279 279 277 276 272 267 266 267 266 265 266 267 267 269 269 271 272 274 274 273 273 275 277 276 279 278 274 274 276 275 276 277 277 278 274 274 273
275 278 279 278 280 276 272 270 268 267 266 268 268 270 270 273 274 273 274 277 277 277 277 278 277 278 278 280 279 278 276 277 277 277 276 274 274 273
277 276 274 275 279 277 276 273 271 271 270 271 269 271 272 274 276 277 279 281 282 281 282 282 280 278 278 281 282 282 282 281 279 277 274 273 274 274
276 275 275 276 279 279 279 275 272 271 271 271 272 273 274 274 276 277 279 281 283 283 284 284 282 281 280 281 281 281 282 283 280 279 278 276 274 273
275 274 276 279 282 281 284 280 278 276 273 273 275 277 278 278 282 283 281 282 284 282 282 282 280 280 280 279 278 280 284 285 284 281 280 279 277 275
274 273 277 279 281 284 285 282 280 280 276 275 275 275 276 278 283 285 284 284 285 284 284 283 282 281 283 281 280 281 284 285 286 286 283 281 280 279
274 274 275 279 280 282 283 279 280 280 279 279 278 279 280 284 286 288 287 286 287 285 285 285 284 284 285 284 282 282 284 286 286 286 287 285 283 282
274 275 275 277 279 281 281 280 279 279 278 277 279 281 282 283 284 287 289 289 289 287 286 285 285 286 288 287 286 285 285 285 285 285 285 286 285 283
275 276 277 279 278 278 278 278 279 278 277 277 279 281 283 284 286 288 288 288 289 288 288 288 288 286 286 288 288 287 286 286 287 287 286 286 287 285
275 276 277 278 279 279 277 277 276 275 275 276 279 280 282 284 287 290 290 289 288 289 289 289 289 288 288 288 288 291 291 289 288 289 288 287 287 285
275 277 278 277 276 276 276 276 276 277 278 278 280 281 281 283 286 289 291 290 290 291 290 290 291 290 290 290 289 290 290 290 290 290 290 289 288 287
276 277 277 275 274 274 275 276 277 277 278 279 279 281 282 284 286 289 289 289 288 289 290 291 291 291 291 290 290 291 292 292 292 292 291 290 289 288
276 276 276 276 275 275 276 275 276 276 277 279 280 280 281 282 284 285 287 287 286 287 288 289 290 290 289 290 290 291 292 293 294 293 291 291 290 289
276 276 275 276 275 275 274 274 275 276 278 280 281 281 280 281 283 286 287 289 289 287 288 289 289 289 288 289 290 291 292 293 294 294 293 291 290 289
278 278 276 276 276 275 275 273 274 277 278 280 281 281 282 282 284 286 288 289 290 289 289 290 290 289 290 290 290 290 291 293 293 294 293 291 291 290
277 278 277 276 276 276 277 276 276 278 279 281 282 283 283 283 284 286 288 289 291 291 291 291 290 290 290 290 290 291 291 291 292 292 292 291 290 289
276 277 277 277 276 277 279 279 279 279 280 281 282 283 284 286 287 288 289 290 292 292 292 291 291 290 290 290 288 289 291 292 292 291 291 291 290 290
276 277 277 278 279 281 281 281 281 281 281 282 283 284 285 286 287 288 289 290 291 292 292 292 292 291 290 290 290 290 291 292 293 293 292 291 289 288
276 277 277 278 279 281 282 282 282 282 282 282 282 283 284 285 286 287 288 289 290 291 292 292 291 291 290 290 290 290 291 292 292 292 293 291 290 290
275 277 276 277 279 280 282 283 284 284 284 283 283 284 285 285 287 288 289 290 290 292 293 293 292 291 290 290 290 290 290 292 293 292 291 291 290 289
274 275 275 276 278 280 280 281 284 285 285 285 285 285 286 286 287 288 288 289 291 292 292 292 291 290 290 291 291 292 292 292 292 293 293 292 290 289
Height
5827 5827 5826 5826 5826 5826 5826 5825 5825 5825 5824 5824 5824 5824 5824 5824 5824 5824 5824 5824 5823 5822 5822 5821 5821 5821 5820 5819 5819 5819 5818 5818 5817 5816 5816 5815 5815 5815
5824 5824 5824 5823 5823 5823 5822 5822 5821 5821 5820 5820 5820 5820 5820 5820 5820 5820 5819 5819 5818 5818 5817 5817 5816 5815 5815 5814 5814 5814 5813 5812 5811 5811 5810 5809 5809 5809
5822 5822 5821 5820 5820 5819 5819 5819 5818 5817 5817 5817 5816 5816 5816 5816 5816 5815 5815 5815 5814 5813 5813 5812 5811 5810 5810 5809 5809 5808 5807 5807 5806 5805 5804 5804 5803 5803
5820 5819 5818 5818 5817 5816 5816 5815 5815 5814 5813 5813 5813 5813 5812 5811 5811 5811 5811 5810 5810 5809 5808 5807 5807 5806 5805 5804 5803 5803 5802 5801 5800 5799 5798 5798 5797 5796
5817 5817 5816 5815 5815 5814 5813 5812 5812 5811 5810 5810 5809 5809 5808 5808 5807 5807 5807 5806 5805 5804 5804 5803 5802 5801 5800 5799 5798 5798 5797 5796 5794 5793 5792 5791 5791 5790
5814 5814 5813 5812 5812 5811 5810 5809 5809 5808 5807 5806 5806 5805 5804 5804 5803 5803 5803 5802 5801 5800 5799 5798 5797 5796 5795 5794 5793 5792 5791 5790 5788 5787 5786 5785 5784 5783
5811 5811 5810 5809 5809 5808 5807 5806 5805 5805 5804 5803 5802 5802 5801 5800 5799 5799 5798 5798 5796 5796 5795 5793 5792 5791 5790 5788 5787 5786 5785 5784 5783 5781 5780 5779 5778 5777
5808 5807 5807 5806 5805 5804 5803 5803 5802 5801 5801 5800 5799 5798 5798 5797 5796 5795 5794 5794 5792 5792 5790 5789 5787 5786 5785 5784 5782 5781 5780 5778 5777 5776 5774 5773 5771 5770
5804 5803 5803 5802 5801 5801 5800 5799 5798 5798 5797 5796 5796 5795 5794 5793 5792 5791 5790 5789 5787 5786 5785 5783 5782 5781 5779 5778 5777 5776 5774 5773 5772 5770 5768 5767 5765 5764
5800 5799 5799 5798 5797 5796 5795 5795 5794 5793 5793 5792 5792 5791 5790 5789 5788 5787 5785 5783 5782 5780 5779 5778 5777 5775 5774 5773 5771 5770 5769 5767 5766 5764 5762 5761 5759 5757
5795 5794 5794 5793 5792 5792 5791 5790 5789 5789 5788 5788 5787 5786 5785 5784 5783 5782 5780 5779 5777 5775 5774 5772 5771 5770 5769 5767 5766 5764 5763 5761 5760 5758 5756 5754 5753 5751
5790 5789 5788 5788 5787 5786 5786 5785 5784 5784 5783 5783 5782 5781 5780 5779 5778 5777 5775 5774 5772 5771 5768 5767 5765 5764 5763 5761 5760 5758 5756 5755 5753 5751 5750 5748 5746 5744
5784 5783 5783 5782 5782 5781 5780 5780 5779 5778 5778 5777 5776 5775 5774 5773 5772 5771 5770 5768 5766 5765 5763 5761 5760 5758 5757 5755 5754 5752 5750 5749 5747 5745 5743 5741 5739 5738
5779 5778 5777 5777 5776 5775 5775 5774 5773 5772 5772 5771 5770 5769 5768 5767 5766 5765 5764 5762 5760 5759 5757 5755 5753 5752 5750 5749 5747 5746 5744 5742 5740 5738 5736 5734 5732 5730
5773 5772 5771 5771 5770 5769 5769 5768 5767 5766 5766 5765 5764 5763 5762 5761 5759 5758 5757 5755 5754 5752 5750 5748 5747 5745 5743 5742 5740 5739 5737 5735 5733 5731 5729 5727 5725 5722
5766 5766 5765 5764 5764 5763 5762 5761 5761 5760 5759 5758 5757 5756 5755 5754 5752 5751 5750 5748 5747 5745 5744 5742 5740 5738 5737 5735 5733 5731 5729 5727 5725 5723 5721 5719 5717 5714
5760 5759 5759 5758 5757 5757 5756 5755 5754 5754 5753 5752 5751 5749 5748 5747 5745 5744 5742 5741 5739 5738 5736 5735 5733 5731 5730 5728 5726 5724 5722 5720 5718 5716 5714 5711 5709 5706
5753 5753 5752 5752 5751 5750 5749 5748 5748 5747 5746 5745 5743 5742 5741 5740 5738 5737 5735 5734 5732 5730 5729 5727 5725 5724 5722 5721 5719 5716 5714 5712 5710 5708 5705 5703 5701 5698
5747 5746 5746 5745 5744 5744 5743 5742 5741 5740 5739 5738 5736 5735 5734 5732 5731 5730 5728 5727 5725 5723 5721 5719 5717 5715 5714 5712 5711 5709 5706 5704 5702 5699 5697 5695 5692 5690
5740 5740 5739 5739 5738 5737 5736 5735 5734 5733 5732 5731 5729 5728 5727 5725 5724 5722 5721 5719 5717 5715 5713 5711 5709 5707 5705 5704 5702 5700 5698 5696 5693 5691 5688 5686 5683 5681
5733 5733 5732 5732 5731 5730 5729 5728 5727 5726 5724 5723 5722 5721 5719 5717 5716 5714 5713 5711 5709 5707 5705 5703 5701 5699 5697 5695 5693 5691 5689 5687 5684 5682 5680 5677 5674 5672
5726 5726 5725 5725 5724 5723 5722 5721 5720 5718 5717 5716 5714 5713 5711 5709 5708 5706 5704 5702 5701 5699 5697 5695 5692 5690 5688 5686 5684 5682 5680 5678 5675 5673 5671 5668 5665 5663
5719 5718 5718 5717 5717 5716 5715 5714 5712 5711 5709 5708 5706 5705 5703 5701 5699 5697 5695 5693 5692 5690 5688 5686 5684 5681 5679 5677 5675 5673 5671 5669 5666 5663 5661 5659 5656 5654